Вернуться в каталог

CZ-2C R/B

АктивенLEO
NORAD 58916·ROCKET BODY·🇨🇳 China

Запущен Feb 2, 2024 с Xichang Satellite Launch Center

Loading…

Ближайшие Пролёты (ближайшие 24 часа)

TLE

СвежийSource: Space-Track

Эпоха: Sep 14, 2026, 12:02 UTC

1 58916U 24023M   26257.50180247  .00000221  00000-0  66752-4 0  9994
2 58916  49.8987  54.8010 0094681 249.7395 109.3339 14.71499152140456

Отслеживайте CZ-2C R/B в реальном времени с AllMySat

Download on the App Store